Location: G�kdere
(37.0328°N, 30.9000°E)
Time: 22:18:11
(UTC+00:00)

USA 234 - Pass Details

Date: 03 March 2021
Orbit: 1102 x 1105 km, 123.0° (Epoch: 18 April)

Event Time Altitude Azimuth Distance (km) Brightness Sun altitude
Rises 16:06:30 0° 51° (NE) 3,923 5.6 -3.6°
Reaches altitude 10° 16:09:10 10° 59° (ENE) 2,962 5.0 -4.1°
Maximum altitude 16:15:16 41° 127° (SE) 1,556 3.8 -5.3°
Drops below altitude 10° 16:21:19 10° 196° (SSW) 2,951 5.8 -6.5°
Sets 16:23:58 0° 203° (SSW) 3,906 6.5 -7.1°
